GFSNW_prec_precacc_351.txt.gz
Total_Precipitation_Accumulation
2.05 2.07 1.88 1.80 2.09 2.03 2.39 2.27 2.08 1.93 2.35 2.58 1.83 1.12 0.81 0.48 0.17 0.18 0.17 0.20 0.15 0.24 0.25 0.31 0.31 0.33 0.43 0.21 0.19 0.48 0.62 1.30 1.20 1.12 0.63 0.55 0.71 0.85 0.88 1.83 1.36 1.07 1.21 1.93
2.20 2.58 2.33 1.65 2.07 2.27 2.27 2.22 1.96 2.78 1.58 1.16 0.78 0.49 0.45 0.31 0.13 0.18 0.28 0.28 0.22 0.24 0.25 0.38 0.31 0.21 0.17 0.07 0.08 0.45 0.77 1.48 1.14 0.96 0.74 0.77 1.17 0.83 0.98 1.39 1.84 1.45 1.15 1.64
2.13 2.48 2.68 2.03 1.94 2.18 2.44 2.36 2.22 3.82 2.50 0.64 0.30 0.57 0.59 0.38 0.16 0.21 0.30 0.34 0.21 0.22 0.15 0.18 0.37 0.11 0.09 0.05 0.05 0.31 1.09 1.26 1.17 1.05 1.00 1.20 1.05 0.59 0.92 1.62 1.90 0.81 0.57 0.45
2.01 2.22 2.82 3.19 2.60 2.56 2.46 2.09 1.23 1.08 1.16 0.61 0.25 0.60 0.64 0.52 0.40 0.29 0.25 0.25 0.13 0.43 0.54 0.22 0.14 0.14 0.16 0.09 0.06 0.30 0.96 1.43 1.33 0.58 0.42 0.80 0.76 0.56 0.70 1.38 0.93 0.95 0.51 0.29
2.22 2.12 2.28 2.98 2.66 2.81 2.03 1.48 1.18 0.67 0.41 0.20 0.29 0.41 0.51 0.47 0.52 0.56 0.46 0.42 0.25 0.46 0.65 0.60 0.71 0.62 0.52 0.40 0.25 0.34 0.76 1.21 0.88 0.41 0.26 0.44 0.60 0.31 0.47 0.78 0.62 0.60 0.32 0.39
2.17 2.02 2.21 2.54 2.33 2.99 2.32 1.36 1.19 1.37 0.92 0.40 0.41 0.36 0.44 0.50 0.63 0.57 0.35 0.45 0.66 0.55 0.35 0.42 0.34 0.27 0.20 0.23 0.34 0.41 0.78 0.93 1.18 0.88 0.43 0.67 0.75 0.46 0.52 0.72 0.63 0.43 0.50 0.57
1.88 1.95 2.12 2.36 2.44 2.79 2.57 1.74 2.14 2.26 1.27 0.56 0.45 0.41 0.37 0.43 0.54 0.96 0.52 0.49 0.76 0.44 0.24 0.19 0.13 0.09 0.06 0.10 0.13 0.22 0.60 0.90 1.41 1.11 0.77 1.00 0.68 0.33 0.29 0.41 0.46 0.37 0.45 0.47
1.78 1.82 1.95 2.12 2.20 2.03 2.03 1.67 2.31 2.53 1.76 0.63 0.48 0.32 0.45 0.57 0.56 0.67 0.57 0.34 0.33 0.22 0.24 0.51 0.44 0.21 0.16 0.08 0.05 0.15 0.40 0.89 1.25 0.88 0.66 0.41 0.35 0.28 0.25 0.34 0.33 0.25 0.29 0.33
1.95 1.75 1.66 1.88 1.80 1.84 1.73 1.39 2.01 3.06 2.86 1.09 0.54 0.51 0.51 0.65 0.69 0.71 0.43 0.24 0.28 0.39 0.67 0.89 0.66 0.29 0.22 0.15 0.09 0.11 0.31 0.70 1.22 0.80 0.90 0.46 0.33 0.16 0.05 0.11 0.27 0.12 0.13 0.24
2.21 2.12 1.90 1.93 1.62 1.51 1.64 1.38 1.54 3.01 3.16 0.86 0.22 0.45 0.78 1.08 1.05 1.19 0.67 0.58 0.61 0.56 0.83 0.87 0.49 0.22 0.15 0.24 0.38 0.30 0.40 0.53 0.80 0.68 1.09 0.37 0.31 0.11 0.01 0.20 0.32 0.12 0.15 0.25
2.02 2.17 1.89 1.72 1.47 1.55 2.03 1.28 1.16 2.61 3.12 0.91 0.21 0.26 0.64 1.12 1.17 1.52 1.31 1.53 0.95 1.00 1.07 0.92 0.53 0.41 0.32 0.18 0.23 0.25 0.39 0.59 0.44 0.51 0.72 0.33 0.16 0.10 0.25 0.42 0.31 0.21 0.26 0.27
1.85 1.69 1.56 1.61 1.52 1.57 2.28 1.54 0.92 1.68 2.63 1.64 0.41 0.29 0.26 0.54 0.84 1.36 1.54 1.41 0.80 1.21 1.37 1.11 1.04 0.76 0.39 0.21 0.29 0.04 0.30 0.37 0.57 0.61 0.35 0.17 0.16 0.29 0.34 0.35 0.43 0.30 0.28 0.12
1.84 1.60 1.55 1.65 1.54 1.55 2.22 1.66 1.41 1.99 2.51 1.48 0.59 0.28 0.11 0.19 0.30 0.67 1.49 1.12 0.91 1.34 1.29 1.97 1.71 1.17 0.47 0.46 0.31 0.22 0.17 0.20 0.57 0.45 0.16 0.13 0.22 0.20 0.18 0.24 0.22 0.08 0.08 0.11
1.98 1.77 1.67 1.47 1.40 1.61 2.15 1.59 1.25 2.14 3.31 3.05 0.74 0.10 0.06 0.10 0.30 0.51 0.80 1.11 1.21 1.49 1.82 2.58 2.30 1.22 0.50 0.40 0.32 0.36 0.32 0.43 0.47 0.45 0.17 0.26 0.18 0.09 0.12 0.14 0.10 0.05 0.03 0.03
1.91 1.69 1.69 1.68 1.74 1.99 1.88 1.44 1.30 1.34 2.46 2.70 0.87 0.27 0.11 0.10 0.28 0.53 0.73 1.02 1.62 1.72 2.11 2.20 1.32 0.72 0.76 0.71 0.62 0.58 0.39 0.70 0.82 0.60 0.28 0.54 0.27 0.09 0.08 0.16 0.12 0.11 0.16 0.14
1.77 1.68 1.76 1.92 2.10 2.55 2.63 3.42 2.03 1.21 1.75 4.59 2.97 0.86 0.26 0.16 0.28 0.56 0.78 0.89 1.16 1.85 2.24 1.79 1.08 0.63 1.41 2.02 0.85 0.36 0.27 0.27 0.47 0.51 0.23 0.24 0.17 0.08 0.04 0.12 0.11 0.16 0.21 0.17
2.03 2.01 2.01 2.00 2.32 2.42 2.97 3.26 1.79 1.52 2.43 5.24 4.08 1.95 0.71 0.35 0.45 0.79 0.96 1.05 1.21 1.57 2.23 1.68 1.03 0.78 2.05 2.52 0.97 0.19 0.12 0.06 0.05 0.15 0.36 0.31 0.10 0.14 0.08 0.14 0.12 0.10 0.07 0.06
2.41 2.48 2.50 2.51 2.75 3.04 2.85 2.02 1.72 2.00 3.36 4.38 4.08 2.00 0.87 0.60 0.77 1.08 1.11 1.17 1.36 1.68 1.85 1.38 0.92 1.05 1.71 1.68 0.30 0.10 0.08 0.06 0.04 0.06 0.15 0.28 0.13 0.07 0.09 0.11 0.10 0.09 0.05 0.06
3.30 3.46 3.43 3.80 3.70 3.02 2.46 2.27 2.57 2.82 4.25 5.85 3.40 1.25 0.90 0.86 0.71 0.92 1.12 1.33 1.87 1.83 1.57 1.28 1.13 1.10 1.20 0.67 0.33 0.17 0.15 0.25 0.22 0.05 0.01 0.02 0.06 0.07 0.06 0.08 0.12 0.19 0.16 0.15
4.44 4.28 4.72 4.79 3.71 3.09 3.22 4.08 4.98 5.57 5.12 4.08 2.13 0.86 0.96 0.96 0.95 1.44 1.64 1.71 1.65 1.57 1.09 1.26 1.43 0.83 0.39 0.20 0.17 0.22 0.21 0.21 0.22 0.33 0.31 0.30 0.23 0.13 0.10 0.16 0.22 0.31 0.28 0.22
4.85 4.63 4.06 4.00 3.47 4.03 4.87 5.38 4.79 4.33 3.65 2.41 1.48 1.10 1.04 1.01 1.26 1.54 1.78 1.88 1.57 1.53 0.80 1.20 1.08 0.56 0.19 0.11 0.09 0.06 0.09 0.15 0.20 0.35 0.39 0.44 0.53 0.46 0.35 0.24 0.22 0.21 0.26 0.39
4.34 3.70 3.71 4.27 4.53 5.07 4.78 3.64 2.37 2.16 1.74 1.37 1.06 0.72 0.81 1.17 1.39 1.94 2.26 1.96 1.63 1.26 0.77 1.28 0.55 0.19 0.05 0.08 0.13 0.17 0.18 0.23 0.26 0.33 0.45 0.47 0.53 0.53 0.46 0.40 0.38 0.38 0.38 0.37
4.76 4.78 4.97 4.43 3.87 3.53 2.52 1.48 1.05 0.96 0.78 0.75 0.74 0.83 0.97 1.15 1.44 2.26 2.13 2.06 1.47 0.92 1.06 0.68 0.24 0.09 0.12 0.22 0.17 0.12 0.07 0.14 0.30 0.46 0.59 0.53 0.40 0.31 0.40 0.49 0.48 0.49 0.46 0.50
6.12 5.19 4.52 2.94 2.10 0.98 0.49 0.46 0.51 0.46 0.57 0.66 0.62 0.94 1.02 1.08 1.42 1.68 1.85 1.25 1.15 1.09 0.66 0.26 0.15 0.21 0.29 0.26 0.23 0.24 0.16 0.19 0.37 0.52 0.51 0.44 0.47 0.47 0.45 0.56 0.65 0.64 0.74 0.83
5.33 4.24 2.72 1.48 0.72 0.48 0.55 0.50 0.51 0.67 0.69 0.74 0.91 1.08 1.03 1.29 1.68 1.46 1.44 1.45 0.88 0.34 0.21 0.21 0.32 0.45 0.55 0.56 0.57 0.54 0.41 0.42 0.57 0.74 0.74 0.70 0.46 0.38 0.58 0.84 0.83 0.67 0.69 0.87
4.59 3.43 1.85 0.87 0.62 0.65 0.78 0.75 0.79 0.81 0.82 0.97 1.41 1.56 1.52 1.64 1.60 1.46 0.93 0.76 0.41 0.36 0.52 0.65 0.63 0.73 0.82 0.86 0.88 0.94 0.97 0.96 0.89 1.22 1.39 1.11 0.80 0.78 0.80 0.71 0.84 0.81 0.74 0.75
4.36 1.94 0.89 0.82 0.84 0.92 1.03 0.94 0.92 0.90 1.20 1.29 1.85 2.07 1.28 1.08 1.15 0.53 0.27 0.34 0.34 0.56 0.78 0.90 0.89 0.90 0.79 0.69 0.77 0.93 1.10 1.26 1.09 1.13 1.24 1.36 1.16 0.74 0.41 0.55 0.61 0.51 0.51 0.60

GFSNW_prec_precacc_354.txt.gz
Total_Precipitation_Accumulation
2.05 2.07 1.88 1.80 2.09 2.03 2.39 2.27 2.08 1.93 2.35 2.58 1.83 1.12 0.81 0.48 0.17 0.18 0.17 0.20 0.15 0.24 0.25 0.31 0.31 0.33 0.43 0.21 0.19 0.48 0.62 1.30 1.20 1.12 0.63 0.56 0.73 0.89 0.93 1.89 1.46 1.11 1.21 1.94
2.20 2.58 2.33 1.65 2.07 2.27 2.27 2.22 1.96 2.78 1.58 1.16 0.78 0.49 0.45 0.31 0.13 0.18 0.28 0.28 0.22 0.24 0.25 0.38 0.31 0.21 0.17 0.07 0.08 0.46 0.78 1.48 1.14 0.96 0.74 0.78 1.18 0.86 1.02 1.43 1.87 1.49 1.15 1.65
2.13 2.48 2.68 2.03 1.94 2.18 2.44 2.36 2.22 3.82 2.50 0.64 0.30 0.57 0.59 0.38 0.16 0.21 0.30 0.34 0.21 0.22 0.15 0.18 0.37 0.11 0.09 0.05 0.05 0.31 1.09 1.26 1.17 1.06 1.04 1.25 1.07 0.61 0.94 1.63 1.91 0.83 0.59 0.48
2.01 2.22 2.82 3.19 2.60 2.56 2.46 2.09 1.23 1.08 1.16 0.61 0.25 0.60 0.64 0.52 0.40 0.29 0.25 0.25 0.13 0.43 0.54 0.22 0.14 0.14 0.16 0.09 0.06 0.30 0.96 1.43 1.33 0.58 0.43 0.81 0.77 0.57 0.73 1.40 0.95 0.97 0.55 0.32
2.22 2.12 2.28 2.98 2.66 2.81 2.03 1.48 1.18 0.67 0.41 0.20 0.29 0.41 0.51 0.47 0.52 0.56 0.46 0.42 0.25 0.46 0.65 0.60 0.71 0.63 0.52 0.40 0.26 0.34 0.76 1.21 0.88 0.41 0.26 0.44 0.60 0.31 0.48 0.79 0.64 0.62 0.33 0.42
2.17 2.02 2.21 2.54 2.33 2.99 2.32 1.36 1.19 1.37 0.92 0.40 0.41 0.36 0.44 0.50 0.63 0.57 0.35 0.45 0.66 0.55 0.35 0.42 0.34 0.27 0.20 0.23 0.35 0.41 0.78 0.93 1.18 0.88 0.43 0.67 0.75 0.48 0.54 0.75 0.66 0.46 0.53 0.62
1.88 1.95 2.12 2.36 2.44 2.79 2.57 1.74 2.14 2.26 1.27 0.56 0.45 0.41 0.37 0.43 0.54 0.96 0.52 0.49 0.76 0.44 0.24 0.19 0.13 0.09 0.06 0.10 0.13 0.23 0.60 0.90 1.41 1.11 0.77 1.00 0.68 0.34 0.31 0.44 0.50 0.41 0.49 0.51
1.78 1.82 1.95 2.12 2.20 2.03 2.03 1.67 2.31 2.53 1.76 0.63 0.48 0.32 0.45 0.57 0.56 0.67 0.57 0.34 0.33 0.22 0.24 0.51 0.44 0.21 0.16 0.08 0.05 0.15 0.40 0.89 1.25 0.88 0.66 0.41 0.35 0.28 0.26 0.35 0.34 0.27 0.32 0.36
1.95 1.75 1.66 1.88 1.80 1.84 1.73 1.39 2.01 3.06 2.86 1.09 0.54 0.51 0.51 0.65 0.69 0.71 0.43 0.24 0.28 0.39 0.67 0.89 0.66 0.29 0.22 0.15 0.09 0.11 0.31 0.70 1.22 0.80 0.90 0.46 0.33 0.16 0.05 0.12 0.27 0.12 0.15 0.27
2.21 2.12 1.90 1.93 1.62 1.51 1.64 1.38 1.54 3.01 3.16 0.86 0.22 0.45 0.78 1.08 1.05 1.19 0.67 0.58 0.61 0.56 0.83 0.87 0.49 0.22 0.15 0.24 0.38 0.30 0.40 0.53 0.80 0.68 1.09 0.37 0.31 0.11 0.01 0.21 0.32 0.12 0.16 0.26
2.02 2.17 1.89 1.72 1.47 1.55 2.03 1.28 1.16 2.61 3.12 0.91 0.21 0.26 0.64 1.12 1.17 1.52 1.31 1.53 0.95 1.00 1.07 0.92 0.53 0.41 0.32 0.18 0.23 0.25 0.39 0.59 0.44 0.51 0.72 0.33 0.16 0.10 0.25 0.42 0.31 0.21 0.26 0.28
1.85 1.69 1.56 1.61 1.53 1.57 2.28 1.54 0.92 1.68 2.63 1.64 0.41 0.29 0.26 0.54 0.84 1.36 1.54 1.41 0.80 1.21 1.37 1.11 1.05 0.77 0.39 0.21 0.29 0.04 0.30 0.37 0.57 0.61 0.35 0.17 0.16 0.29 0.34 0.35 0.43 0.30 0.28 0.12
1.84 1.60 1.55 1.65 1.54 1.55 2.23 1.66 1.41 1.99 2.51 1.48 0.59 0.28 0.11 0.19 0.30 0.67 1.49 1.12 0.91 1.34 1.29 1.97 1.71 1.17 0.47 0.47 0.31 0.22 0.17 0.20 0.58 0.45 0.16 0.13 0.22 0.20 0.18 0.24 0.22 0.08 0.08 0.11
1.98 1.77 1.67 1.47 1.41 1.62 2.15 1.59 1.25 2.14 3.31 3.05 0.74 0.10 0.06 0.10 0.30 0.51 0.80 1.11 1.21 1.49 1.83 2.59 2.30 1.22 0.50 0.40 0.32 0.36 0.32 0.43 0.47 0.45 0.17 0.26 0.18 0.09 0.12 0.14 0.10 0.05 0.03 0.03
1.91 1.69 1.69 1.68 1.74 1.99 1.88 1.44 1.30 1.34 2.46 2.70 0.87 0.27 0.11 0.10 0.28 0.53 0.73 1.02 1.62 1.72 2.11 2.20 1.32 0.72 0.76 0.71 0.62 0.58 0.39 0.70 0.82 0.60 0.28 0.54 0.27 0.09 0.08 0.16 0.12 0.11 0.16 0.14
1.77 1.68 1.76 1.92 2.10 2.55 2.63 3.42 2.03 1.21 1.75 4.59 2.97 0.86 0.26 0.16 0.28 0.56 0.78 0.89 1.16 1.85 2.24 1.79 1.08 0.63 1.42 2.02 0.85 0.36 0.27 0.27 0.47 0.51 0.23 0.24 0.17 0.08 0.04 0.12 0.11 0.16 0.21 0.17
2.03 2.01 2.01 2.00 2.32 2.42 2.97 3.26 1.79 1.52 2.43 5.24 4.08 1.95 0.71 0.35 0.45 0.79 0.97 1.05 1.21 1.57 2.23 1.69 1.03 0.78 2.06 2.53 0.98 0.19 0.12 0.06 0.05 0.15 0.36 0.31 0.10 0.14 0.08 0.14 0.12 0.10 0.07 0.06
2.41 2.48 2.50 2.52 2.75 3.05 2.86 2.02 1.72 2.00 3.36 4.38 4.08 2.00 0.87 0.60 0.77 1.08 1.11 1.18 1.36 1.68 1.86 1.38 0.93 1.05 1.71 1.69 0.30 0.10 0.08 0.06 0.04 0.06 0.15 0.28 0.13 0.07 0.09 0.11 0.10 0.09 0.05 0.06
3.30 3.46 3.43 3.80 3.70 3.02 2.46 2.27 2.57 2.82 4.25 5.85 3.40 1.25 0.90 0.86 0.71 0.92 1.12 1.33 1.87 1.83 1.58 1.28 1.13 1.10 1.20 0.67 0.33 0.17 0.15 0.25 0.22 0.05 0.01 0.02 0.06 0.07 0.06 0.08 0.12 0.19 0.16 0.15
4.44 4.28 4.72 4.79 3.71 3.09 3.22 4.08 4.98 5.57 5.13 4.09 2.13 0.86 0.96 0.96 0.95 1.44 1.64 1.71 1.65 1.57 1.10 1.27 1.43 0.83 0.39 0.20 0.17 0.22 0.21 0.21 0.22 0.33 0.31 0.30 0.23 0.13 0.10 0.16 0.22 0.31 0.28 0.22
4.86 4.63 4.06 4.00 3.47 4.03 4.87 5.38 4.79 4.33 3.65 2.41 1.49 1.10 1.04 1.01 1.26 1.54 1.78 1.88 1.57 1.53 0.80 1.21 1.08 0.56 0.19 0.11 0.09 0.06 0.09 0.15 0.20 0.35 0.39 0.44 0.53 0.46 0.35 0.24 0.22 0.21 0.26 0.39
4.37 3.72 3.73 4.27 4.53 5.07 4.78 3.64 2.37 2.16 1.74 1.37 1.06 0.72 0.81 1.17 1.39 1.94 2.26 1.96 1.63 1.26 0.77 1.28 0.55 0.19 0.05 0.08 0.13 0.17 0.18 0.23 0.26 0.33 0.45 0.47 0.53 0.53 0.46 0.40 0.38 0.38 0.38 0.37
4.87 4.83 4.99 4.43 3.87 3.54 2.53 1.49 1.06 0.97 0.78 0.75 0.75 0.83 0.97 1.15 1.44 2.26 2.13 2.06 1.47 0.92 1.06 0.68 0.24 0.09 0.12 0.22 0.17 0.12 0.07 0.14 0.30 0.46 0.59 0.53 0.40 0.31 0.40 0.49 0.48 0.49 0.46 0.50
6.26 5.26 4.54 2.94 2.10 0.98 0.50 0.48 0.53 0.46 0.57 0.66 0.62 0.94 1.04 1.09 1.44 1.69 1.85 1.25 1.15 1.09 0.66 0.26 0.15 0.21 0.29 0.26 0.23 0.24 0.16 0.19 0.37 0.52 0.51 0.44 0.47 0.47 0.45 0.56 0.65 0.64 0.74 0.83
5.46 4.32 2.74 1.48 0.72 0.48 0.58 0.55 0.55 0.69 0.70 0.76 0.93 1.11 1.06 1.31 1.71 1.47 1.44 1.45 0.88 0.34 0.21 0.21 0.32 0.45 0.55 0.56 0.57 0.54 0.41 0.42 0.57 0.74 0.74 0.70 0.46 0.38 0.58 0.85 0.84 0.67 0.69 0.87
4.68 3.47 1.85 0.87 0.63 0.67 0.85 0.89 0.94 0.92 0.91 1.03 1.46 1.59 1.54 1.66 1.61 1.46 0.93 0.76 0.41 0.36 0.52 0.65 0.63 0.73 0.82 0.86 0.88 0.94 0.97 0.96 0.89 1.22 1.39 1.11 0.80 0.78 0.81 0.72 0.84 0.81 0.74 0.75
4.42 1.96 0.89 0.82 0.84 0.94 1.10 1.08 1.08 1.05 1.29 1.34 1.90 2.11 1.30 1.10 1.17 0.54 0.27 0.34 0.34 0.56 0.78 0.90 0.89 0.90 0.79 0.69 0.77 0.93 1.10 1.26 1.09 1.14 1.24 1.36 1.17 0.74 0.42 0.56 0.62 0.51 0.51 0.60

GFSNW_prec_precacc_357.txt.gz
Total_Precipitation_Accumulation
2.05 2.07 1.88 1.80 2.09 2.03 2.39 2.27 2.08 1.93 2.35 2.58 1.83 1.12 0.81 0.48 0.17 0.18 0.17 0.20 0.15 0.24 0.25 0.31 0.31 0.33 0.43 0.21 0.19 0.48 0.62 1.31 1.20 1.12 0.64 0.59 0.78 0.94 0.94 1.92 1.51 1.13 1.22 1.95
2.20 2.58 2.33 1.65 2.07 2.27 2.27 2.22 1.96 2.78 1.58 1.16 0.78 0.49 0.45 0.31 0.13 0.18 0.28 0.28 0.22 0.24 0.25 0.38 0.31 0.21 0.17 0.07 0.08 0.46 0.78 1.48 1.14 0.96 0.75 0.78 1.19 0.90 1.07 1.49 1.91 1.52 1.17 1.67
2.13 2.48 2.68 2.03 1.94 2.18 2.44 2.36 2.22 3.82 2.50 0.64 0.30 0.57 0.59 0.38 0.16 0.21 0.30 0.34 0.21 0.22 0.15 0.18 0.37 0.11 0.09 0.05 0.05 0.31 1.09 1.26 1.17 1.07 1.06 1.28 1.08 0.62 0.96 1.65 1.93 0.85 0.63 0.51
2.01 2.22 2.82 3.19 2.60 2.56 2.46 2.09 1.23 1.08 1.16 0.61 0.25 0.60 0.64 0.52 0.40 0.29 0.25 0.25 0.13 0.43 0.54 0.22 0.14 0.14 0.16 0.09 0.06 0.30 0.96 1.43 1.33 0.58 0.43 0.82 0.77 0.58 0.74 1.42 0.99 1.00 0.61 0.36
2.22 2.12 2.28 2.98 2.66 2.81 2.03 1.48 1.18 0.67 0.41 0.20 0.29 0.41 0.51 0.47 0.52 0.56 0.46 0.42 0.25 0.46 0.65 0.60 0.71 0.63 0.52 0.40 0.26 0.34 0.76 1.21 0.88 0.41 0.26 0.44 0.60 0.31 0.48 0.79 0.66 0.64 0.37 0.46
2.17 2.02 2.21 2.54 2.33 2.99 2.32 1.36 1.19 1.37 0.92 0.40 0.41 0.36 0.44 0.50 0.63 0.57 0.35 0.45 0.66 0.55 0.35 0.42 0.34 0.27 0.20 0.23 0.36 0.42 0.78 0.93 1.18 0.88 0.43 0.67 0.75 0.49 0.56 0.77 0.69 0.48 0.55 0.66
1.88 1.95 2.12 2.36 2.44 2.79 2.57 1.74 2.14 2.26 1.27 0.56 0.45 0.41 0.37 0.43 0.54 0.96 0.52 0.49 0.76 0.44 0.24 0.19 0.13 0.09 0.06 0.11 0.14 0.23 0.61 0.90 1.41 1.11 0.77 1.00 0.68 0.34 0.31 0.46 0.52 0.43 0.51 0.53
1.78 1.82 1.95 2.12 2.20 2.03 2.03 1.67 2.31 2.53 1.76 0.63 0.48 0.32 0.45 0.57 0.56 0.67 0.57 0.34 0.33 0.22 0.24 0.51 0.44 0.21 0.16 0.08 0.05 0.15 0.40 0.89 1.25 0.88 0.66 0.41 0.35 0.28 0.26 0.35 0.34 0.28 0.33 0.36
1.95 1.75 1.66 1.88 1.80 1.84 1.73 1.39 2.01 3.06 2.86 1.09 0.54 0.51 0.51 0.65 0.69 0.71 0.43 0.24 0.28 0.39 0.67 0.89 0.66 0.29 0.22 0.15 0.09 0.11 0.31 0.70 1.22 0.80 0.90 0.46 0.33 0.16 0.05 0.12 0.27 0.13 0.15 0.28
2.21 2.12 1.90 1.93 1.62 1.51 1.64 1.38 1.54 3.01 3.16 0.86 0.22 0.45 0.78 1.08 1.05 1.19 0.67 0.58 0.61 0.56 0.83 0.87 0.49 0.22 0.15 0.24 0.38 0.30 0.40 0.53 0.80 0.68 1.09 0.37 0.31 0.11 0.01 0.21 0.32 0.12 0.16 0.28
2.02 2.17 1.89 1.72 1.47 1.55 2.03 1.28 1.16 2.61 3.12 0.91 0.21 0.26 0.64 1.12 1.17 1.52 1.31 1.53 0.95 1.00 1.07 0.92 0.53 0.41 0.32 0.18 0.23 0.25 0.39 0.59 0.44 0.51 0.72 0.33 0.16 0.10 0.25 0.42 0.31 0.21 0.26 0.29
1.85 1.69 1.56 1.61 1.53 1.58 2.28 1.54 0.92 1.68 2.63 1.64 0.41 0.29 0.26 0.54 0.84 1.36 1.54 1.41 0.80 1.21 1.37 1.11 1.05 0.77 0.39 0.21 0.29 0.04 0.30 0.37 0.57 0.61 0.35 0.17 0.16 0.29 0.34 0.35 0.43 0.30 0.28 0.12
1.84 1.60 1.55 1.65 1.54 1.55 2.23 1.66 1.41 1.99 2.51 1.48 0.59 0.28 0.11 0.19 0.30 0.67 1.49 1.12 0.91 1.34 1.29 1.97 1.71 1.17 0.47 0.47 0.31 0.22 0.17 0.20 0.58 0.45 0.16 0.13 0.22 0.20 0.18 0.24 0.22 0.08 0.08 0.11
1.98 1.77 1.67 1.47 1.41 1.62 2.15 1.59 1.25 2.14 3.31 3.05 0.74 0.10 0.06 0.10 0.30 0.51 0.80 1.11 1.21 1.49 1.83 2.59 2.30 1.22 0.50 0.40 0.32 0.36 0.32 0.43 0.47 0.45 0.17 0.26 0.18 0.09 0.12 0.14 0.10 0.05 0.03 0.03
1.91 1.69 1.69 1.68 1.74 1.99 1.88 1.44 1.30 1.34 2.46 2.70 0.87 0.27 0.11 0.10 0.28 0.53 0.73 1.02 1.62 1.72 2.12 2.20 1.32 0.72 0.76 0.71 0.62 0.58 0.39 0.70 0.82 0.60 0.28 0.54 0.27 0.09 0.08 0.16 0.12 0.11 0.16 0.14
1.77 1.68 1.76 1.92 2.10 2.55 2.63 3.42 2.03 1.21 1.75 4.59 2.97 0.86 0.26 0.16 0.29 0.56 0.78 0.90 1.17 1.85 2.25 1.79 1.08 0.63 1.42 2.02 0.85 0.36 0.27 0.27 0.47 0.51 0.23 0.24 0.17 0.08 0.04 0.12 0.11 0.16 0.21 0.17
2.03 2.01 2.01 2.00 2.32 2.42 2.97 3.26 1.79 1.52 2.43 5.24 4.08 1.95 0.71 0.35 0.46 0.79 0.97 1.06 1.22 1.58 2.24 1.69 1.03 0.78 2.06 2.53 0.98 0.19 0.12 0.06 0.05 0.15 0.36 0.31 0.10 0.14 0.08 0.14 0.12 0.10 0.07 0.06
2.41 2.49 2.50 2.52 2.75 3.05 2.86 2.02 1.72 2.00 3.36 4.38 4.08 2.00 0.87 0.60 0.77 1.08 1.12 1.18 1.37 1.69 1.86 1.38 0.93 1.06 1.72 1.69 0.30 0.10 0.08 0.06 0.04 0.06 0.15 0.28 0.13 0.07 0.09 0.11 0.10 0.09 0.05 0.06
3.31 3.46 3.44 3.80 3.70 3.02 2.46 2.27 2.57 2.83 4.26 5.85 3.40 1.25 0.90 0.86 0.71 0.92 1.12 1.33 1.88 1.83 1.58 1.28 1.14 1.11 1.20 0.67 0.33 0.17 0.15 0.25 0.22 0.05 0.01 0.02 0.06 0.07 0.06 0.08 0.12 0.19 0.16 0.15
4.45 4.28 4.72 4.80 3.71 3.09 3.22 4.09 4.98 5.58 5.13 4.10 2.14 0.86 0.96 0.96 0.95 1.44 1.64 1.71 1.65 1.57 1.10 1.27 1.44 0.83 0.39 0.20 0.17 0.22 0.21 0.21 0.22 0.33 0.31 0.30 0.23 0.13 0.10 0.16 0.22 0.31 0.28 0.22
4.86 4.63 4.07 4.00 3.47 4.04 4.87 5.38 4.79 4.33 3.65 2.41 1.49 1.10 1.04 1.01 1.26 1.54 1.78 1.88 1.57 1.53 0.80 1.21 1.08 0.56 0.19 0.11 0.09 0.06 0.09 0.15 0.20 0.35 0.39 0.44 0.53 0.46 0.35 0.24 0.22 0.21 0.26 0.39
4.39 3.75 3.76 4.29 4.54 5.08 4.78 3.64 2.37 2.16 1.74 1.37 1.06 0.72 0.81 1.17 1.39 1.94 2.26 1.96 1.63 1.26 0.77 1.28 0.55 0.19 0.05 0.08 0.13 0.17 0.18 0.23 0.26 0.33 0.45 0.47 0.53 0.53 0.46 0.40 0.38 0.38 0.38 0.37
4.91 4.88 5.03 4.44 3.88 3.54 2.53 1.49 1.08 0.99 0.79 0.75 0.75 0.83 0.97 1.15 1.44 2.26 2.14 2.06 1.47 0.92 1.06 0.68 0.24 0.09 0.12 0.22 0.17 0.12 0.07 0.14 0.30 0.46 0.59 0.53 0.40 0.31 0.40 0.49 0.48 0.49 0.46 0.50
6.34 5.36 4.61 2.96 2.10 0.98 0.50 0.49 0.55 0.48 0.58 0.67 0.62 0.94 1.05 1.09 1.46 1.71 1.88 1.27 1.16 1.09 0.66 0.26 0.15 0.21 0.29 0.26 0.23 0.24 0.16 0.19 0.37 0.52 0.51 0.44 0.47 0.47 0.45 0.56 0.65 0.64 0.74 0.85
5.62 4.46 2.78 1.48 0.72 0.48 0.58 0.56 0.61 0.79 0.79 0.82 0.99 1.16 1.10 1.33 1.74 1.51 1.46 1.48 0.89 0.34 0.21 0.21 0.32 0.45 0.55 0.56 0.57 0.54 0.41 0.42 0.57 0.74 0.74 0.70 0.46 0.38 0.58 0.85 0.84 0.69 0.71 0.89
4.85 3.55 1.86 0.87 0.63 0.67 0.86 0.95 1.09 1.14 1.13 1.17 1.56 1.68 1.58 1.68 1.63 1.49 0.94 0.77 0.42 0.36 0.52 0.65 0.63 0.73 0.82 0.86 0.88 0.94 0.97 0.96 0.89 1.22 1.39 1.11 0.80 0.78 0.81 0.72 0.85 0.82 0.75 0.76
4.54 1.98 0.89 0.82 0.84 0.94 1.10 1.13 1.25 1.31 1.53 1.49 2.03 2.19 1.34 1.15 1.23 0.57 0.28 0.34 0.35 0.57 0.78 0.91 0.90 0.90 0.79 0.69 0.77 0.93 1.10 1.26 1.09 1.14 1.24 1.36 1.17 0.74 0.42 0.56 0.62 0.52 0.52 0.61

GFSNW_prec_precacc_360.txt.gz
Total_Precipitation_Accumulation
2.05 2.07 1.88 1.80 2.09 2.03 2.39 2.27 2.08 1.93 2.35 2.58 1.83 1.12 0.81 0.48 0.17 0.18 0.17 0.20 0.15 0.25 0.25 0.31 0.31 0.33 0.43 0.21 0.19 0.48 0.62 1.31 1.20 1.12 0.64 0.60 0.81 0.97 0.95 1.92 1.51 1.13 1.22 1.95
2.20 2.58 2.33 1.65 2.07 2.27 2.27 2.22 1.96 2.78 1.58 1.16 0.78 0.49 0.45 0.31 0.13 0.18 0.28 0.28 0.22 0.24 0.25 0.39 0.31 0.21 0.17 0.07 0.08 0.46 0.78 1.48 1.14 0.96 0.75 0.78 1.20 0.92 1.08 1.50 1.91 1.53 1.17 1.67
2.13 2.48 2.68 2.03 1.94 2.18 2.44 2.36 2.22 3.82 2.50 0.64 0.30 0.57 0.59 0.38 0.16 0.21 0.30 0.34 0.21 0.22 0.15 0.18 0.37 0.11 0.09 0.05 0.05 0.31 1.09 1.26 1.17 1.07 1.07 1.30 1.09 0.62 0.97 1.66 1.93 0.86 0.65 0.52
2.01 2.22 2.82 3.19 2.60 2.56 2.46 2.09 1.23 1.08 1.16 0.61 0.25 0.60 0.64 0.52 0.40 0.29 0.25 0.25 0.13 0.43 0.54 0.22 0.14 0.14 0.16 0.09 0.06 0.30 0.96 1.43 1.33 0.58 0.43 0.82 0.78 0.59 0.74 1.43 1.00 1.01 0.63 0.39
2.22 2.12 2.28 2.98 2.66 2.81 2.03 1.48 1.18 0.67 0.41 0.20 0.29 0.41 0.51 0.47 0.52 0.56 0.46 0.42 0.25 0.46 0.65 0.60 0.71 0.63 0.52 0.40 0.26 0.34 0.76 1.21 0.88 0.41 0.26 0.44 0.60 0.31 0.48 0.79 0.67 0.66 0.38 0.48
2.17 2.02 2.21 2.54 2.33 2.99 2.32 1.36 1.19 1.37 0.92 0.40 0.41 0.36 0.44 0.50 0.63 0.57 0.35 0.45 0.66 0.55 0.35 0.42 0.34 0.27 0.20 0.24 0.36 0.42 0.79 0.93 1.18 0.88 0.43 0.67 0.75 0.49 0.56 0.78 0.70 0.49 0.57 0.69
1.88 1.95 2.12 2.36 2.44 2.79 2.57 1.74 2.14 2.26 1.27 0.56 0.45 0.41 0.37 0.43 0.54 0.96 0.52 0.49 0.76 0.44 0.24 0.19 0.13 0.09 0.06 0.11 0.14 0.23 0.61 0.90 1.41 1.11 0.77 1.00 0.68 0.34 0.31 0.46 0.54 0.45 0.54 0.56
1.78 1.82 1.95 2.12 2.20 2.03 2.03 1.67 2.31 2.53 1.76 0.63 0.48 0.32 0.45 0.57 0.56 0.67 0.57 0.34 0.33 0.22 0.24 0.51 0.44 0.21 0.16 0.08 0.05 0.15 0.40 0.89 1.25 0.88 0.66 0.41 0.35 0.28 0.26 0.35 0.34 0.29 0.34 0.38
1.95 1.75 1.66 1.88 1.80 1.84 1.73 1.39 2.01 3.06 2.86 1.09 0.54 0.51 0.51 0.65 0.69 0.71 0.43 0.24 0.28 0.39 0.67 0.89 0.66 0.29 0.22 0.15 0.09 0.11 0.31 0.70 1.22 0.80 0.90 0.46 0.33 0.16 0.05 0.12 0.27 0.13 0.16 0.28
2.21 2.12 1.90 1.93 1.62 1.51 1.64 1.38 1.54 3.01 3.16 0.86 0.22 0.45 0.78 1.08 1.05 1.19 0.67 0.58 0.61 0.56 0.83 0.87 0.49 0.22 0.15 0.24 0.38 0.30 0.40 0.53 0.80 0.68 1.09 0.37 0.31 0.11 0.01 0.21 0.32 0.12 0.16 0.28
2.02 2.17 1.89 1.72 1.48 1.55 2.03 1.28 1.16 2.61 3.12 0.91 0.21 0.26 0.64 1.12 1.17 1.52 1.31 1.53 0.95 1.00 1.07 0.92 0.53 0.41 0.32 0.19 0.23 0.25 0.39 0.59 0.44 0.51 0.72 0.33 0.16 0.10 0.25 0.42 0.31 0.21 0.26 0.29
1.85 1.69 1.56 1.61 1.53 1.58 2.28 1.54 0.92 1.68 2.63 1.64 0.41 0.29 0.26 0.54 0.84 1.36 1.54 1.41 0.80 1.21 1.37 1.11 1.05 0.77 0.39 0.21 0.29 0.04 0.30 0.37 0.57 0.61 0.35 0.17 0.16 0.29 0.34 0.35 0.43 0.30 0.28 0.12
1.84 1.60 1.55 1.65 1.54 1.56 2.23 1.66 1.41 1.99 2.51 1.48 0.59 0.28 0.11 0.19 0.30 0.67 1.49 1.12 0.91 1.34 1.29 1.97 1.71 1.17 0.47 0.47 0.31 0.22 0.17 0.20 0.58 0.45 0.16 0.13 0.22 0.20 0.18 0.24 0.22 0.08 0.08 0.11
1.98 1.77 1.67 1.47 1.41 1.63 2.16 1.59 1.25 2.14 3.31 3.05 0.74 0.10 0.06 0.10 0.30 0.51 0.80 1.11 1.21 1.49 1.83 2.59 2.31 1.22 0.50 0.40 0.32 0.36 0.32 0.43 0.47 0.45 0.17 0.26 0.18 0.09 0.12 0.14 0.10 0.05 0.03 0.03
1.91 1.69 1.69 1.68 1.75 1.99 1.88 1.44 1.30 1.34 2.46 2.70 0.87 0.27 0.11 0.10 0.28 0.53 0.73 1.02 1.62 1.72 2.12 2.20 1.32 0.72 0.76 0.71 0.62 0.58 0.39 0.70 0.82 0.60 0.28 0.54 0.27 0.09 0.08 0.16 0.12 0.11 0.16 0.14
1.77 1.68 1.76 1.92 2.10 2.55 2.63 3.42 2.03 1.21 1.75 4.59 2.97 0.86 0.26 0.16 0.29 0.56 0.79 0.90 1.17 1.86 2.25 1.79 1.08 0.63 1.42 2.02 0.85 0.36 0.27 0.27 0.47 0.51 0.23 0.24 0.17 0.08 0.04 0.12 0.11 0.16 0.21 0.17
2.03 2.01 2.01 2.00 2.32 2.42 2.97 3.26 1.79 1.52 2.43 5.24 4.08 1.95 0.71 0.36 0.46 0.80 0.98 1.07 1.23 1.58 2.24 1.69 1.03 0.78 2.07 2.53 0.98 0.19 0.12 0.06 0.05 0.15 0.36 0.31 0.10 0.14 0.08 0.14 0.12 0.10 0.07 0.06
2.41 2.49 2.51 2.52 2.75 3.05 2.86 2.02 1.72 2.00 3.36 4.38 4.09 2.00 0.87 0.61 0.77 1.08 1.12 1.19 1.37 1.69 1.86 1.38 0.93 1.06 1.72 1.69 0.30 0.10 0.08 0.06 0.04 0.06 0.15 0.28 0.13 0.07 0.09 0.11 0.10 0.09 0.05 0.06
3.33 3.47 3.44 3.81 3.70 3.02 2.47 2.27 2.57 2.85 4.27 5.85 3.40 1.25 0.90 0.86 0.71 0.92 1.12 1.34 1.88 1.84 1.58 1.28 1.14 1.11 1.21 0.67 0.33 0.17 0.15 0.25 0.22 0.05 0.01 0.02 0.06 0.07 0.06 0.08 0.12 0.19 0.16 0.15
4.49 4.30 4.72 4.80 3.72 3.09 3.23 4.09 4.99 5.58 5.14 4.11 2.14 0.86 0.96 0.96 0.95 1.44 1.64 1.72 1.65 1.58 1.10 1.27 1.44 0.83 0.39 0.20 0.17 0.22 0.21 0.21 0.22 0.33 0.31 0.30 0.23 0.13 0.10 0.16 0.22 0.31 0.28 0.22
4.88 4.65 4.07 4.00 3.47 4.04 4.87 5.39 4.80 4.33 3.65 2.42 1.49 1.10 1.04 1.01 1.26 1.54 1.78 1.88 1.57 1.53 0.80 1.21 1.08 0.56 0.19 0.11 0.09 0.06 0.09 0.15 0.20 0.35 0.39 0.44 0.53 0.46 0.35 0.24 0.22 0.21 0.26 0.39
4.41 3.76 3.78 4.31 4.55 5.09 4.79 3.65 2.37 2.17 1.75 1.38 1.06 0.72 0.81 1.17 1.39 1.94 2.26 1.96 1.63 1.26 0.77 1.28 0.55 0.19 0.05 0.08 0.13 0.17 0.18 0.23 0.26 0.33 0.45 0.47 0.53 0.53 0.46 0.40 0.38 0.38 0.38 0.37
4.95 4.93 5.08 4.48 3.90 3.54 2.54 1.49 1.08 1.01 0.82 0.77 0.76 0.84 0.97 1.16 1.44 2.27 2.15 2.07 1.47 0.92 1.06 0.68 0.24 0.09 0.12 0.22 0.17 0.12 0.07 0.14 0.30 0.46 0.59 0.53 0.40 0.31 0.40 0.49 0.48 0.49 0.46 0.50
6.43 5.50 4.71 2.99 2.11 0.98 0.50 0.49 0.55 0.52 0.65 0.75 0.68 0.97 1.08 1.11 1.48 1.74 1.91 1.31 1.18 1.10 0.66 0.26 0.15 0.21 0.29 0.26 0.23 0.24 0.16 0.19 0.37 0.52 0.51 0.44 0.47 0.47 0.45 0.56 0.65 0.64 0.75 0.85
5.80 4.69 2.86 1.50 0.72 0.48 0.58 0.56 0.63 0.93 1.02 1.05 1.15 1.28 1.18 1.37 1.78 1.54 1.49 1.53 0.92 0.36 0.22 0.22 0.32 0.45 0.55 0.56 0.57 0.54 0.41 0.42 0.57 0.74 0.74 0.70 0.46 0.38 0.58 0.85 0.85 0.69 0.71 0.90
5.02 3.69 1.89 0.88 0.63 0.67 0.86 0.95 1.20 1.43 1.51 1.50 1.77 1.86 1.69 1.75 1.67 1.53 0.95 0.81 0.42 0.36 0.52 0.65 0.63 0.73 0.82 0.86 0.88 0.94 0.97 0.96 0.89 1.22 1.39 1.11 0.80 0.78 0.81 0.72 0.85 0.82 0.75 0.76
4.66 2.02 0.90 0.82 0.84 0.94 1.10 1.15 1.40 1.67 1.94 1.79 2.29 2.37 1.47 1.24 1.30 0.60 0.29 0.35 0.35 0.59 0.81 0.92 0.90 0.91 0.80 0.70 0.79 0.94 1.11 1.26 1.09 1.14 1.24 1.36 1.17 0.74 0.42 0.56 0.62 0.52 0.52 0.61

GFSNW_prec_precacc_363.txt.gz
Total_Precipitation_Accumulation
2.05 2.07 1.88 1.80 2.09 2.03 2.39 2.27 2.08 1.93 2.35 2.58 1.83 1.12 0.81 0.48 0.17 0.18 0.17 0.20 0.15 0.25 0.25 0.31 0.31 0.33 0.43 0.21 0.19 0.48 0.62 1.31 1.20 1.12 0.64 0.61 0.83 0.99 0.96 1.94 1.52 1.13 1.23 1.96
2.20 2.58 2.33 1.65 2.07 2.27 2.27 2.22 1.96 2.78 1.58 1.16 0.78 0.49 0.45 0.31 0.13 0.18 0.28 0.28 0.22 0.24 0.25 0.39 0.31 0.21 0.17 0.07 0.08 0.46 0.78 1.48 1.14 0.96 0.75 0.79 1.20 0.92 1.08 1.50 1.91 1.53 1.18 1.68
2.13 2.48 2.68 2.03 1.94 2.18 2.44 2.36 2.22 3.82 2.50 0.64 0.30 0.57 0.59 0.38 0.16 0.21 0.30 0.34 0.21 0.22 0.15 0.18 0.37 0.11 0.09 0.05 0.05 0.31 1.09 1.26 1.17 1.08 1.08 1.31 1.09 0.62 0.97 1.66 1.93 0.86 0.65 0.53
2.01 2.22 2.82 3.19 2.60 2.56 2.46 2.09 1.23 1.08 1.16 0.61 0.25 0.60 0.64 0.52 0.40 0.29 0.25 0.25 0.13 0.43 0.54 0.22 0.14 0.14 0.16 0.09 0.06 0.30 0.96 1.43 1.33 0.58 0.43 0.82 0.78 0.59 0.74 1.43 1.00 1.01 0.63 0.39
2.22 2.12 2.28 2.98 2.66 2.81 2.03 1.48 1.18 0.67 0.41 0.20 0.29 0.41 0.51 0.47 0.52 0.56 0.46 0.42 0.25 0.46 0.65 0.60 0.71 0.63 0.52 0.40 0.26 0.34 0.76 1.21 0.88 0.41 0.26 0.44 0.60 0.31 0.48 0.79 0.67 0.66 0.38 0.48
2.17 2.02 2.21 2.54 2.33 2.99 2.32 1.36 1.19 1.37 0.92 0.40 0.41 0.36 0.44 0.50 0.63 0.57 0.35 0.45 0.66 0.55 0.35 0.42 0.34 0.27 0.20 0.24 0.37 0.42 0.79 0.93 1.18 0.88 0.43 0.67 0.75 0.49 0.56 0.78 0.70 0.49 0.57 0.69
1.88 1.95 2.12 2.36 2.44 2.79 2.57 1.74 2.14 2.26 1.27 0.56 0.45 0.41 0.37 0.43 0.54 0.96 0.52 0.49 0.76 0.44 0.24 0.19 0.13 0.09 0.06 0.11 0.14 0.23 0.61 0.90 1.41 1.11 0.77 1.00 0.68 0.34 0.31 0.46 0.54 0.46 0.54 0.56
1.78 1.82 1.95 2.12 2.20 2.03 2.03 1.67 2.31 2.53 1.76 0.63 0.48 0.32 0.45 0.57 0.56 0.67 0.57 0.34 0.33 0.22 0.24 0.51 0.44 0.21 0.16 0.08 0.05 0.15 0.40 0.89 1.25 0.88 0.66 0.41 0.35 0.28 0.26 0.35 0.34 0.29 0.34 0.38
1.95 1.75 1.66 1.88 1.80 1.84 1.73 1.39 2.01 3.06 2.86 1.09 0.54 0.51 0.51 0.65 0.69 0.71 0.43 0.24 0.28 0.39 0.67 0.89 0.66 0.29 0.22 0.15 0.09 0.11 0.31 0.70 1.22 0.80 0.90 0.46 0.33 0.16 0.05 0.12 0.27 0.13 0.16 0.28
2.21 2.12 1.90 1.93 1.62 1.51 1.64 1.38 1.54 3.01 3.16 0.86 0.22 0.45 0.78 1.08 1.05 1.19 0.67 0.58 0.61 0.56 0.83 0.87 0.49 0.22 0.15 0.24 0.38 0.30 0.40 0.53 0.80 0.68 1.09 0.37 0.31 0.11 0.01 0.21 0.32 0.12 0.16 0.28
2.02 2.17 1.89 1.72 1.48 1.55 2.03 1.28 1.16 2.61 3.12 0.91 0.21 0.26 0.64 1.12 1.17 1.52 1.31 1.53 0.95 1.00 1.07 0.92 0.53 0.41 0.32 0.19 0.23 0.25 0.39 0.59 0.44 0.51 0.72 0.33 0.16 0.10 0.25 0.42 0.31 0.21 0.26 0.29
1.85 1.69 1.56 1.61 1.53 1.58 2.28 1.54 0.92 1.68 2.63 1.64 0.41 0.29 0.26 0.54 0.84 1.36 1.54 1.41 0.80 1.21 1.37 1.11 1.05 0.77 0.39 0.21 0.29 0.04 0.30 0.37 0.57 0.61 0.35 0.17 0.16 0.29 0.34 0.35 0.43 0.30 0.28 0.12
1.84 1.60 1.55 1.65 1.54 1.56 2.23 1.66 1.41 1.99 2.52 1.48 0.59 0.28 0.11 0.19 0.30 0.67 1.49 1.12 0.91 1.34 1.29 1.97 1.71 1.17 0.47 0.47 0.31 0.22 0.17 0.20 0.58 0.45 0.16 0.13 0.22 0.20 0.18 0.24 0.22 0.08 0.08 0.11
1.99 1.78 1.67 1.47 1.41 1.63 2.16 1.59 1.25 2.14 3.31 3.06 0.74 0.10 0.06 0.10 0.30 0.51 0.80 1.11 1.21 1.49 1.83 2.59 2.31 1.22 0.50 0.40 0.32 0.36 0.32 0.43 0.47 0.45 0.17 0.26 0.18 0.09 0.12 0.14 0.10 0.05 0.03 0.03
1.93 1.71 1.69 1.68 1.75 1.99 1.88 1.44 1.30 1.34 2.46 2.70 0.87 0.27 0.11 0.10 0.28 0.53 0.73 1.02 1.62 1.72 2.12 2.20 1.32 0.72 0.76 0.71 0.62 0.58 0.39 0.70 0.82 0.60 0.28 0.54 0.27 0.09 0.08 0.16 0.12 0.11 0.16 0.14
1.81 1.70 1.76 1.92 2.10 2.55 2.63 3.42 2.03 1.21 1.75 4.59 2.97 0.86 0.26 0.16 0.29 0.56 0.79 0.91 1.18 1.86 2.25 1.79 1.08 0.63 1.42 2.02 0.85 0.36 0.27 0.27 0.47 0.51 0.23 0.24 0.17 0.08 0.04 0.12 0.11 0.16 0.21 0.17
2.06 2.02 2.01 2.01 2.32 2.42 2.97 3.26 1.79 1.52 2.43 5.25 4.09 1.95 0.71 0.36 0.46 0.80 0.98 1.08 1.24 1.58 2.24 1.69 1.03 0.79 2.07 2.54 0.98 0.19 0.12 0.06 0.05 0.15 0.36 0.31 0.10 0.14 0.08 0.14 0.12 0.10 0.07 0.06
2.46 2.51 2.52 2.53 2.76 3.05 2.86 2.03 1.73 2.00 3.37 4.41 4.10 2.00 0.87 0.61 0.77 1.08 1.12 1.19 1.38 1.70 1.86 1.39 0.93 1.07 1.73 1.70 0.30 0.10 0.08 0.06 0.04 0.06 0.15 0.28 0.13 0.07 0.09 0.11 0.10 0.09 0.05 0.06
3.37 3.50 3.47 3.82 3.70 3.02 2.47 2.28 2.58 2.87 4.29 5.90 3.43 1.25 0.90 0.86 0.71 0.92 1.12 1.34 1.88 1.84 1.59 1.28 1.14 1.11 1.21 0.67 0.33 0.17 0.15 0.25 0.22 0.05 0.01 0.02 0.06 0.07 0.06 0.08 0.12 0.19 0.16 0.15
4.52 4.32 4.73 4.81 3.72 3.10 3.23 4.10 5.00 5.59 5.15 4.12 2.15 0.86 0.96 0.96 0.95 1.44 1.64 1.72 1.66 1.58 1.10 1.28 1.45 0.83 0.39 0.20 0.17 0.22 0.21 0.21 0.22 0.33 0.31 0.30 0.23 0.13 0.10 0.16 0.22 0.31 0.28 0.22
4.91 4.67 4.09 4.01 3.48 4.05 4.88 5.41 4.80 4.34 3.65 2.42 1.49 1.10 1.04 1.01 1.26 1.54 1.78 1.88 1.57 1.53 0.80 1.21 1.08 0.56 0.19 0.11 0.09 0.06 0.09 0.15 0.20 0.35 0.39 0.44 0.53 0.46 0.35 0.24 0.22 0.21 0.26 0.39
4.46 3.78 3.79 4.33 4.57 5.12 4.80 3.65 2.37 2.17 1.75 1.38 1.07 0.73 0.82 1.17 1.39 1.94 2.26 1.96 1.63 1.26 0.77 1.28 0.55 0.19 0.05 0.08 0.13 0.17 0.18 0.23 0.26 0.33 0.45 0.47 0.53 0.53 0.46 0.40 0.38 0.38 0.38 0.37
5.02 4.99 5.14 4.53 3.93 3.54 2.54 1.49 1.08 1.01 0.82 0.78 0.81 0.90 1.00 1.17 1.45 2.28 2.16 2.08 1.48 0.92 1.06 0.68 0.24 0.09 0.12 0.22 0.17 0.12 0.07 0.14 0.30 0.46 0.59 0.53 0.40 0.31 0.40 0.49 0.48 0.49 0.46 0.50
6.53 5.64 4.83 3.03 2.12 0.98 0.50 0.49 0.55 0.52 0.67 0.87 0.81 1.08 1.16 1.15 1.53 1.78 1.94 1.34 1.21 1.11 0.66 0.26 0.15 0.21 0.29 0.26 0.23 0.24 0.16 0.19 0.37 0.52 0.51 0.44 0.47 0.47 0.45 0.56 0.65 0.64 0.75 0.85
5.91 4.85 2.93 1.52 0.72 0.48 0.58 0.56 0.64 0.99 1.22 1.29 1.34 1.44 1.30 1.44 1.83 1.58 1.51 1.56 0.94 0.36 0.22 0.22 0.34 0.46 0.55 0.56 0.57 0.54 0.41 0.42 0.57 0.74 0.74 0.70 0.46 0.38 0.58 0.85 0.85 0.69 0.71 0.90
5.17 3.81 1.91 0.88 0.63 0.67 0.86 0.96 1.30 1.69 1.84 1.78 1.96 2.03 1.79 1.82 1.70 1.56 0.95 0.83 0.42 0.37 0.53 0.70 0.67 0.74 0.82 0.86 0.88 0.94 0.97 0.97 0.89 1.22 1.39 1.11 0.80 0.78 0.81 0.72 0.85 0.82 0.75 0.76
4.75 2.04 0.90 0.82 0.84 0.94 1.11 1.20 1.53 1.92 2.20 1.97 2.46 2.50 1.56 1.31 1.34 0.62 0.31 0.36 0.38 0.66 0.89 0.97 0.93 0.92 0.81 0.72 0.81 0.96 1.13 1.29 1.10 1.14 1.24 1.36 1.17 0.74 0.42 0.56 0.62 0.52 0.52 0.61